Regional Weather Roundup
Issued by NWS Kansas City/Pleasant Hill, MO

Home | Current Version | Previous Version | Text Only | Print | Product List | Glossary On
Versions: 1 2 3 4 5 6 7 8 9 10 11 12 13 14 15 16 17 18 19 20 21 22 23 24 25 26 27 28 29 30 31 32 33 34 35 36 37 38 39 40 41 42 43 44 45 46 47 48 49 50
000
ASUS43 KEAX 310510
RWREAX

WEATHER ROUNDUP FOR EASTERN KANSAS AND NORTHWEST MISSOURI
NATIONAL WEATHER SERVICE KANSAS CITY/PLEASANT HILL MO
1200 AM CDT FRI JUL 31 2015

KSZ040-057-103>105-MOZ028-029-037-043-310600-
...KANSAS CITY METROPOLITAN AREA...

CITY           SKY/WX    TMP DP  RH WIND       PRES   REMARKS
K.C. INTL      PTCLDY    74  62  66 CALM      30.17R
K.C. DOWNTOWN  CLEAR     73  67  81 CALM      30.16R
LEES SUMMIT    CLEAR     71  60  68 SE3       30.18R
OLATHE - IXD   CLEAR     65  61  87 E5        30.18R
OLATHE - OJC   CLEAR     68  60  75 CALM      30.17R
LAWRENCE       CLEAR     64  62  93 CALM      30.17R

$$

MOZ001>008-011>017-020>025-030>033-038>040-044>046-053-054-310600-
...NORTHERN AND CENTRAL MISSOURI...

CITY           SKY/WX    TMP DP  RH WIND       PRES   REMARKS
ST. JOSEPH     CLEAR     71  69  93 CALM      30.15S
MOSBY          CLEAR     68  68 100 CALM      30.17R
WARRENSBURG    CLEAR     68  64  88 CALM      30.17R
WHITEMAN AFB   CLEAR     69  64  85 SW2       30.16R
CLINTON        CLEAR     66  66 100 CALM      30.17S
SEDALIA        CLEAR     72  63  73 SW6       30.17S
WARSAW         NOT AVBL
CHILLICOTHE      N/A     70  67  90 CALM      30.16S
KIRKSVILLE     CLEAR     68  64  87 SW5       30.15S

$$

MOZ041-047>049-056>058-063>065-088>090-097-310600-
...EASTERN AND SOUTHERN MISSOURI...

CITY           SKY/WX    TMP DP  RH WIND       PRES   REMARKS
ST. LOUIS INTL PTCLDY    77  65  66 W5        30.12F
SPIRIT OF STL  CLEAR     70  68  93 CALM      30.11F
COLUMBIA       CLEAR     71  68  90 CALM      30.16S
JEFFERSON CITY CLEAR     69  66  90 CALM      30.15R
ROLLA          HAZE      68  62  81 CALM      30.16S VSB 3/4
OSAGE BEACH    CLEAR     68  64  88 CALM      30.17R
SPRINGFIELD    PTCLDY    69  63  81 SE5       30.17S
BRANSON        CLEAR     68  64  88 CALM      30.19R
JOPLIN         MOCLDY    73  66  78 NE5       30.16S
WEST PLAINS    CLEAR     67  63  87 CALM      30.18S

$$

IAZ060-094-KSZ022-034>040-054-083-096-NEZ052-066-093-310600-
...KANSAS...SOUTHEAST NEBRASKA AND IOWA...

CITY           SKY/WX    TMP DP  RH WIND       PRES   REMARKS
TOPEKA         CLEAR     69  66  90 CALM      30.17R
MANHATTAN      CLEAR     68  65  90 CALM      30.16F
EMPORIA        CLEAR     69  66  90 S6        30.17S
CHANUTE        PTCLDY    76  65  68 CALM      30.16S
WICHITA        PTCLDY    75  68  78 CALM      30.17F
OMAHA          PTCLDY    78  65  63 S3        30.12F
LINCOLN        CLEAR     73  61  65 CALM      30.15F
FALLS CITY     CLEAR     72  64  76 S7        30.15S
LAMONI         CLEAR     72  65  78 SW8       30.15R
DES MOINES     CLEAR     74  65  73 SW6       30.11S

$$




USA.gov is the U.S. government's official web portal to all federal, state and local government web resources and services.